Location: Clatteringshaws Loch
(55.0508°N, 4.2860°W)
Time: 04:31:50
(UTC+01:00)

Amateur Radio Satellites - All Passes

Search period start: 25 June 2017 04:01
Search period end: 26 June 2017 04:01
Location: Clatteringshaws Loch, 55.0508°N, 4.2860°W

Satellite Date Start Highest point End Downlink Frequencies (MHz)
Time Altitude Azimuth
BEESAT 3 25 Jun 04:22:42 04:26:27 35° 28° (NNE) 04:30:12 437.485
AO-7 25 Jun 04:30:43 04:38:42 45° 99° (E) 04:46:38 .
NO-84 25 Jun 04:32:36 04:36:50 49° 207° (SSW) 04:41:03 435.350 FM
ITAMSAT 1 25 Jun 04:35:01 04:40:06 46° 99° (E) 04:45:07 435.822/435.867
MOZHAYETS 4 25 Jun 04:42:22 04:46:19 27° 267° (W) 04:50:17
KKS-1 25 Jun 04:44:52 04:49:17 71° 71° (ENE) 04:53:45 437.445
Gurwin Techsat 1B 25 Jun 04:46:06 04:50:53 35° 301° (WNW) 04:55:39 435.225
O/OREOS (USA 219) 25 Jun 04:52:28 04:54:27 13° 21° (NNE) 04:56:27 437.305
ITUPSAT 1 25 Jun 04:54:18 04:57:23 17° 273° (W) 05:00:29 437.325
BEESAT 25 Jun 05:05:50 05:08:12 13° 275° (W) 05:10:33 436.000
RS-15 25 Jun 05:12:30 05:24:56 78° 37° (NE) 05:36:49 29.354- 29.394
STARS 25 Jun 05:17:11 05:21:32 68° 70° (ENE) 05:25:57 437.465
BEESAT 2 25 Jun 05:19:30 05:23:25 42° 31° (NNE) 05:27:18 435.950
CUBESAT XI-V 25 Jun 05:20:05 05:24:34 48° 261° (W) 05:29:04 437.345
AO-85 25 Jun 05:28:05 05:32:04 68° 228° (SW) 05:36:17 145.980
STRAND 1 25 Jun 05:34:36 05:37:35 16° 47° (NE) 05:40:34 437.568
YUBILEINY 25 Jun 05:35:29 05:37:56 11° 16° (NNE) 05:40:22 435.215
Oscar 19 25 Jun 05:41:02 05:43:04 12° 317° (NW) 05:45:06 437.125/150
BEESAT 3 25 Jun 06:00:17 06:04:16 59° 229° (SW) 06:08:12 437.485
NO-84 25 Jun 06:10:59 06:13:42 16° 227° (SW) 06:16:23 435.350 FM
DOVE 4 25 Jun 06:13:15 06:17:22 28° 93° (E) 06:21:40 437.250
ITAMSAT 1 25 Jun 06:14:41 06:19:30 38° 300° (WNW) 06:24:18 435.822/435.867
KKS-1 25 Jun 06:23:12 06:26:21 19° 271° (W) 06:29:31 437.445
AO-7 25 Jun 06:23:37 06:31:52 63° 301° (WNW) 06:40:04 .
NUDT-PHONESAT 25 Jun 06:28:58 06:30:31 12° 86° (E) 06:32:04 437.300
O/OREOS (USA 219) 25 Jun 06:31:08 06:35:15 34° 46° (NE) 06:39:21 437.305
XW-2F 25 Jun 06:40:55 06:43:41 19° 91° (E) 06:46:26 145.980 - 146.000
FO-29 25 Jun 06:41:37 06:43:53 12° 25° (NNE) 06:46:12 435.910
XW-2D 25 Jun 06:44:08 06:47:09 22° 92° (E) 06:50:08 145.860 - 145.880
LilacSat-2 25 Jun 06:51:14 06:54:29 26° 93° (E) 06:57:42 437.200
XW-2B 25 Jun 06:52:59 06:56:12 25° 94° (E) 06:59:23 145.730 - 145.750
STARS 25 Jun 06:55:09 06:58:21 19° 270° (W) 07:01:35 437.465
BEESAT 2 25 Jun 06:57:21 07:01:16 46° 233° (SW) 07:05:09 435.950
XW-2C 25 Jun 07:08:15 07:11:47 36° 97° (E) 07:15:16 145.795 - 145.815
AO-85 25 Jun 07:10:00 07:11:48 13° 246° (WSW) 07:13:38 145.980
STRAND 1 25 Jun 07:10:47 07:15:51 62° 68° (ENE) 07:20:59 437.568
CUTE-I 25 Jun 07:11:46 07:16:45 37° 96° (E) 07:21:43 437.470
KAITUO 1B 25 Jun 07:24:25 07:27:59 41° 98° (E) 07:31:31 145.475/437.950
HO-68 25 Jun 07:25:15 07:30:34 22° 86° (E) 07:35:50 435.675
CUTE 1.7 + AOD 2 25 Jun 07:25:25 07:27:21 13° 85° (E) 07:29:17 437.475
RS-15 25 Jun 07:25:28 07:36:57 50° 245° (WSW) 07:47:55 29.354- 29.394
YUBILEINY 25 Jun 07:31:54 07:39:04 26° 49° (NE) 07:46:09 435.215
BEESAT 3 25 Jun 07:40:15 07:41:01 10° 250° (WSW) 07:41:47 437.485
DOVE 4 25 Jun 07:50:40 07:55:18 55° 292° (WNW) 08:00:13 437.250
ITAMSAT 1 25 Jun 07:56:35 07:57:39 11° 321° (NW) 07:58:44 435.822/435.867
NUDT-PHONESAT 25 Jun 08:01:14 08:04:59 84° 286° (WNW) 08:08:41 437.300
UWE-3 25 Jun 08:03:50 08:05:41 12° 82° (E) 08:07:31 435.000/436.395/437.385
UNISAT 6 25 Jun 08:04:09 08:05:40 11° 46° (NE) 08:07:12 437.425
O/OREOS (USA 219) 25 Jun 08:10:31 08:14:50 47° 247° (WSW) 08:19:06 437.305
XW-2F 25 Jun 08:14:26 08:18:08 52° 290° (WNW) 08:21:46 145.980 - 146.000
AO-7 25 Jun 08:16:50 08:23:15 26° 326° (NW) 08:29:40 .
XW-2D 25 Jun 08:17:55 08:21:34 45° 292° (WNW) 08:25:10 145.860 - 145.880
FO-29 25 Jun 08:21:12 08:26:40 29° 49° (NE) 08:32:39 435.910
LilacSat-2 25 Jun 08:25:19 08:28:53 38° 293° (WNW) 08:32:25 437.200
XW-2B 25 Jun 08:26:58 08:30:32 39° 293° (WNW) 08:34:02 145.730 - 145.750
XW-2C 25 Jun 08:42:37 08:45:54 28° 297° (WNW) 08:49:10 145.795 - 145.815
SEEDS 25 Jun 08:43:41 08:47:40 42° 98° (E) 08:51:38 437.485
M-CUBED/EXP-1 PRIME 25 Jun 08:48:03 08:51:10 42° 61° (ENE) 08:54:18 437.505
STRAND 1 25 Jun 08:51:08 08:55:27 26° 268° (W) 08:59:48 437.568
CUTE-I 25 Jun 08:51:48 08:56:58 47° 296° (WNW) 09:02:05 437.470
TIGRISAT 25 Jun 08:56:00 08:59:42 24° 57° (ENE) 09:03:26 435.000
KAITUO 1B 25 Jun 08:58:46 09:01:50 24° 298° (WNW) 09:04:53 145.475/437.950
CUTE 1.7 + AOD 2 25 Jun 08:59:39 09:03:53 85° 105° (ESE) 09:08:06 437.475
AO-73 25 Jun 09:00:55 09:04:18 21° 89° (E) 09:07:37 145.935
PRISM 25 Jun 09:01:13 09:04:31 24° 60° (ENE) 09:07:50 437.425
XW-2A 25 Jun 09:02:41 09:06:09 74° 104° (ESE) 09:09:33 145.665 - 145.685
CUBEBUG 2 25 Jun 09:03:06 09:07:48 55° 100° (E) 09:12:24 437.445
HO-68 25 Jun 09:12:12 09:19:27 81° 107° (ESE) 09:26:39 435.675
YUBILEINY 25 Jun 09:28:41 09:37:37 76° 76° (ENE) 09:46:26 435.215
Oscar 11 25 Jun 09:28:45 09:32:27 27° 93° (E) 09:36:08 .
DOVE 4 25 Jun 09:30:05 09:32:09 13° 311° (NW) 09:34:15 437.250
ZACube-1 25 Jun 09:35:00 09:39:20 42° 97° (E) 09:43:32 437.345
NUDT-PHONESAT 25 Jun 09:36:33 09:38:18 13° 305° (NW) 09:40:03 437.300
AAUSAT CUBESAT 2 25 Jun 09:36:46 09:40:54 69° 103° (ESE) 09:44:59 437.432
UNISAT 6 25 Jun 09:36:53 09:41:21 48° 67° (ENE) 09:45:54 437.425
UWE-3 25 Jun 09:38:22 09:43:03 71° 103° (ESE) 09:47:34 435.000/436.395/437.385
RS-15 25 Jun 09:40:42 09:46:02 14° 271° (W) 09:51:18 29.354- 29.394
AIST 2D 25 Jun 09:54:16 09:55:07 11° 54° (NE) 09:55:59 435.315
FO-29 25 Jun 10:04:37 10:10:57 86° 254° (WSW) 10:18:11 435.910
AO-7 25 Jun 10:09:02 10:13:18 15° 353° (N) 10:17:35 .
SEEDS 25 Jun 10:19:38 10:23:15 29° 297° (WNW) 10:26:50 437.485
M-CUBED/EXP-1 PRIME 25 Jun 10:23:29 10:25:52 19° 260° (W) 10:28:17 437.505
TIGRISAT 25 Jun 10:31:22 10:36:00 68° 258° (WSW) 10:40:43 435.000
CUTE-I 25 Jun 10:33:26 10:35:51 13° 318° (NW) 10:38:16 437.470
Tancredo 1 25 Jun 10:33:49 10:36:27 26° 159° (SSE) 10:39:05 437.200
POLYITAN 1 25 Jun 10:34:32 10:37:30 19° 55° (NE) 10:40:30 437.675
PRISM 25 Jun 10:35:38 10:39:35 50° 259° (W) 10:43:34 437.425
CUTE 1.7 + AOD 2 25 Jun 10:36:28 10:39:12 17° 305° (NW) 10:41:55 437.475
AO-73 25 Jun 10:36:29 10:41:00 65° 289° (WNW) 10:45:21 145.935
XW-2A 25 Jun 10:36:34 10:38:26 14° 303° (WNW) 10:40:17 145.665 - 145.685
CUBEBUG 2 25 Jun 10:40:06 10:44:10 28° 300° (WNW) 10:48:10 437.445
EO-88 25 Jun 10:43:29 10:46:42 28° 95° (E) 10:49:53 145.990 - 145.960
QB50P2 25 Jun 10:44:48 10:48:11 23° 58° (ENE) 10:51:34 145.880/145.840
ISS 25 Jun 10:45:26 10:48:08 24° 155° (SSE) 10:50:52 437.550
HO-68 25 Jun 11:00:24 11:06:38 33° 310° (NW) 11:12:50 435.675
BUGSAT 1 25 Jun 11:03:36 11:05:05 12° 49° (NE) 11:06:34 437.445
Oscar 11 25 Jun 11:04:39 11:08:48 46° 293° (WNW) 11:12:54 .
EO-79 25 Jun 11:08:58 11:12:46 32° 63° (ENE) 11:16:37 145.935-145.965
DELFI C3 25 Jun 11:09:11 11:13:08 72° 103° (ESE) 11:17:05 145.870
LO-87 25 Jun 11:10:23 11:10:46 10° 85° (E) 11:11:07 145.935 - 145.965
ZACube-1 25 Jun 11:11:28 11:15:32 33° 297° (WNW) 11:19:29 437.345
AAUSAT CUBESAT 2 25 Jun 11:13:00 11:15:57 19° 302° (WNW) 11:18:54 437.432
UNISAT 6 25 Jun 11:14:12 11:18:16 29° 267° (W) 11:22:24 437.425
UWE-3 25 Jun 11:15:28 11:19:03 22° 303° (WNW) 11:22:35 435.000/436.395/437.385
DUCHIFAT 1 25 Jun 11:23:34 11:27:27 36° 64° (ENE) 11:31:23 145.980
AIST 2D 25 Jun 11:24:08 11:27:41 72° 73° (ENE) 11:31:14 435.315
YUBILEINY 25 Jun 11:26:07 11:33:44 34° 280° (W) 11:41:20 435.215
NANOSAT C BR1 25 Jun 11:31:33 11:35:37 46° 66° (ENE) 11:39:43 145.865
ESTCUBE 1 25 Jun 11:42:28 11:45:20 16° 87° (E) 11:48:10 437.505/2401.250
FO-29 25 Jun 11:52:21 11:57:11 22° 278° (W) 12:02:29 435.910
AO-7 25 Jun 11:57:54 12:03:01 18° 20° (NNE) 12:08:09 .
Oscar 19 25 Jun 12:06:57 12:10:54 23° 53° (NE) 12:14:51 437.125/150
POLYITAN 1 25 Jun 12:08:30 12:12:48 80° 257° (WSW) 12:17:08 437.675
Tancredo 1 25 Jun 12:08:45 12:11:41 43° 179° (S) 12:14:36 437.200
TIGRISAT 25 Jun 12:11:54 12:13:36 12° 278° (W) 12:15:19 435.000
AO-73 25 Jun 12:14:09 12:16:23 14° 310° (NW) 12:18:37 145.935
EO-88 25 Jun 12:17:06 12:20:25 33° 294° (WNW) 12:23:44 145.990 - 145.960
QB50P2 25 Jun 12:19:25 12:23:39 60° 258° (WSW) 12:27:56 145.880/145.840
ISS 25 Jun 12:21:02 12:24:11 45° 175° (S) 12:27:23 437.550
BUGSAT 1 25 Jun 12:35:30 12:39:36 58° 69° (ENE) 12:43:46 437.445
LO-87 25 Jun 12:41:10 12:44:50 82° 105° (ESE) 12:48:29 145.935 - 145.965
EO-79 25 Jun 12:44:29 12:48:29 39° 263° (W) 12:52:32 145.935-145.965
DELFI C3 25 Jun 12:44:50 12:47:29 18° 303° (WNW) 12:50:09 145.870
HO-68 25 Jun 12:49:10 12:52:22 14° 335° (NNW) 12:55:33 435.675
Gurwin Techsat 1B 25 Jun 12:55:12 12:59:55 34° 59° (ENE) 13:04:40 435.225
DUCHIFAT 1 25 Jun 12:59:16 13:03:09 34° 264° (W) 13:07:05 145.980
AIST 2D 25 Jun 12:59:33 13:01:20 13° 272° (W) 13:03:09 435.315
NANOSAT C BR1 25 Jun 13:07:54 13:11:31 27° 267° (W) 13:15:11 145.865
PCSat 25 Jun 13:08:05 13:13:11 44° 119° (ESE) 13:18:20 145.827
ESTCUBE 1 25 Jun 13:18:14 13:22:44 83° 290° (WNW) 13:27:13 437.505/2401.250
VELOX 1 25 Jun 13:22:02 13:26:05 34° 96° (E) 13:30:09 145.980
DX 1 25 Jun 13:43:33 13:46:57 22° 92° (E) 13:50:21 434.975-435.025
Tancredo 1 25 Jun 13:44:13 13:46:56 29° 198° (SSW) 13:49:37 437.200
Oscar 19 25 Jun 13:44:33 13:49:43 83° 254° (WSW) 13:54:54 437.125/150
AO-7 25 Jun 13:46:12 13:53:38 38° 46° (NE) 14:01:05 .
SPROUT 25 Jun 13:46:41 13:50:58 62° 101° (ESE) 13:55:15 437.525
POLYITAN 1 25 Jun 13:47:27 13:49:19 13° 275° (W) 13:51:12 437.675
ISS 25 Jun 13:57:18 14:00:22 36° 195° (SSW) 14:03:27 437.550
UKube-1 25 Jun 14:01:38 14:05:04 22° 92° (E) 14:08:29 .
50 SAT 25 Jun 14:05:38 14:08:55 42° 100° (E) 14:12:11 437.505
BUGSAT 1 25 Jun 14:12:08 14:15:19 21° 269° (W) 14:18:33 437.445
LO-87 25 Jun 14:15:45 14:17:46 14° 304° (NW) 14:19:47 145.935 - 145.965
SO-50 25 Jun 14:16:42 14:18:06 11° 110° (ESE) 14:19:30 436.795
ITAMSAT 1 25 Jun 14:21:47 14:26:17 30° 57° (ENE) 14:30:48 435.822/435.867
Gurwin Techsat 1B 25 Jun 14:34:30 14:39:42 54° 259° (W) 14:44:56 435.225
PCSat 25 Jun 14:51:15 14:56:34 53° 321° (NW) 15:01:56 145.827
ESTCUBE 1 25 Jun 14:56:07 14:58:55 17° 308° (NW) 15:01:43 437.505/2401.250
VELOX 1 25 Jun 14:58:29 15:02:37 38° 296° (WNW) 15:06:43 145.980
ITUPSAT 1 25 Jun 15:08:34 15:11:07 14° 85° (E) 15:13:40 437.325
BEESAT 25 Jun 15:18:24 15:21:35 17° 88° (E) 15:24:44 436.000
DX 1 25 Jun 15:19:11 15:23:31 60° 291° (WNW) 15:27:49 434.975-435.025
SPROUT 25 Jun 15:23:11 15:26:34 23° 302° (WNW) 15:29:56 437.525
Oscar 19 25 Jun 15:26:42 15:29:52 16° 274° (W) 15:33:02 437.125/150
ISS 25 Jun 15:34:19 15:36:14 15° 214° (SW) 15:38:09 437.550
UKube-1 25 Jun 15:37:10 15:41:26 57° 291° (WNW) 15:45:40 .
AO-7 25 Jun 15:37:28 15:45:49 81° 249° (WSW) 15:54:16 .
50 SAT 25 Jun 15:38:54 15:41:30 21° 299° (WNW) 15:44:07 437.505
DOVE 4 25 Jun 15:52:04 15:53:14 11° 47° (NE) 15:54:24 437.250
SO-50 25 Jun 15:53:12 15:57:39 56° 130° (SE) 16:02:07 436.795
ITAMSAT 1 25 Jun 16:00:20 16:05:29 60° 258° (WSW) 16:10:41 435.822/435.867
HO-68 25 Jun 16:18:19 16:21:56 15° 28° (NNE) 16:25:33 435.675
Gurwin Techsat 1B 25 Jun 16:20:08 16:20:54 10° 280° (W) 16:21:40 435.225
MOZHAYETS 4 25 Jun 16:29:03 16:33:29 44° 98° (E) 16:37:52
PCSat 25 Jun 16:36:35 16:41:07 26° 346° (NNW) 16:45:38 145.827
ITUPSAT 1 25 Jun 16:44:55 16:49:46 79° 105° (ESE) 16:54:34 437.325
BEESAT 25 Jun 16:55:11 17:00:01 86° 290° (WNW) 17:04:48 436.000
DX 1 25 Jun 16:57:01 16:58:52 13° 312° (NW) 17:00:44 434.975-435.025
CUTE-I 25 Jun 17:02:13 17:06:34 26° 54° (NE) 17:10:56 437.470
CUBESAT XI-V 25 Jun 17:09:18 17:13:11 26° 92° (E) 17:17:03 437.345
NUDT-PHONESAT 25 Jun 17:14:31 17:17:06 18° 58° (ENE) 17:19:41 437.300
UKube-1 25 Jun 17:14:59 17:16:37 12° 312° (NW) 17:18:15 .
DOVE 4 25 Jun 17:25:52 17:29:57 53° 69° (ENE) 17:34:14 437.250
XW-2F 25 Jun 17:28:14 17:31:30 27° 63° (ENE) 17:34:45 145.980 - 146.000
XW-2D 25 Jun 17:31:49 17:35:14 31° 64° (ENE) 17:38:38 145.860 - 145.880
AO-7 25 Jun 17:33:27 17:39:55 24° 273° (W) 17:46:27 .
SO-50 25 Jun 17:33:59 17:38:18 42° 332° (NNW) 17:42:37 436.795
LilacSat-2 25 Jun 17:39:31 17:43:05 37° 66° (ENE) 17:46:40 437.200
XW-2B 25 Jun 17:40:40 17:44:11 35° 66° (ENE) 17:47:43 145.730 - 145.750
ITAMSAT 1 25 Jun 17:44:18 17:46:04 12° 278° (W) 17:47:52 435.822/435.867
XW-2C 25 Jun 17:55:53 17:59:37 50° 69° (ENE) 18:03:21 145.795 - 145.815
HO-68 25 Jun 18:01:22 18:07:48 37° 52° (NE) 18:14:15 435.675
KKS-1 25 Jun 18:04:55 18:09:20 52° 101° (E) 18:13:43 437.445
MOZHAYETS 4 25 Jun 18:06:27 18:10:33 32° 298° (WNW) 18:14:37
SEEDS 25 Jun 18:08:53 18:10:57 13° 52° (NE) 18:13:00 437.485
XW-2A 25 Jun 18:10:26 18:11:34 11° 55° (NE) 18:12:42 145.665 - 145.685
KAITUO 1B 25 Jun 18:10:46 18:14:29 56° 71° (ENE) 18:18:12 145.475/437.950
PCSat 25 Jun 18:21:41 18:26:10 25° 12° (NNE) 18:30:39 145.827
ITUPSAT 1 25 Jun 18:23:28 18:27:07 22° 306° (NW) 18:30:45 437.325
CUTE 1.7 + AOD 2 25 Jun 18:24:09 18:27:33 24° 60° (ENE) 18:30:57 437.475
CUBEBUG 2 25 Jun 18:32:46 18:36:10 20° 55° (NE) 18:39:37 437.445
BEESAT 25 Jun 18:33:53 18:37:10 19° 308° (NW) 18:40:27 436.000
STARS 25 Jun 18:35:27 18:39:46 48° 100° (E) 18:44:03 437.465
CUTE-I 25 Jun 18:40:50 18:46:11 74° 255° (WSW) 18:51:35 437.470
CUBESAT XI-V 25 Jun 18:46:21 18:50:51 52° 292° (WNW) 18:55:18 437.345
NUDT-PHONESAT 25 Jun 18:46:52 18:50:37 65° 258° (WSW) 18:54:23 437.300
Oscar 11 25 Jun 18:58:02 18:58:55 11° 48° (NE) 18:59:48 .
AAUSAT CUBESAT 2 25 Jun 18:59:35 19:02:28 19° 57° (ENE) 19:05:20 437.432
XW-2F 25 Jun 19:01:55 19:05:31 38° 262° (W) 19:09:08 145.980 - 146.000
ZACube-1 25 Jun 19:03:14 19:06:00 16° 52° (NE) 19:08:47 437.345
DOVE 4 25 Jun 19:04:40 19:08:01 23° 270° (W) 19:11:30 437.250
XW-2D 25 Jun 19:05:53 19:09:23 33° 264° (W) 19:12:55 145.860 - 145.880
UWE-3 25 Jun 19:06:33 19:10:16 24° 58° (ENE) 19:14:02 435.000/436.395/437.385
LilacSat-2 25 Jun 19:14:05 19:17:28 28° 266° (W) 19:20:50 437.200
XW-2B 25 Jun 19:15:04 19:18:26 29° 265° (W) 19:21:50 145.730 - 145.750
STRAND 1 25 Jun 19:15:41 19:17:51 12° 82° (E) 19:20:00 437.568
SO-50 25 Jun 19:16:00 19:19:46 25° 356° (N) 19:23:32 436.795
XW-2C 25 Jun 19:31:07 19:34:04 21° 269° (W) 19:37:02 145.795 - 145.815
XW-2A 25 Jun 19:40:16 19:43:43 81° 76° (ENE) 19:47:12 145.665 - 145.685
SEEDS 25 Jun 19:41:45 19:45:56 72° 72° (ENE) 19:50:08 437.485
KKS-1 25 Jun 19:41:52 19:45:41 28° 301° (WNW) 19:49:29 437.445
KAITUO 1B 25 Jun 19:46:08 19:48:49 18° 270° (W) 19:51:30 145.475/437.950
HO-68 25 Jun 19:47:57 19:55:09 71° 254° (WSW) 20:02:23 435.675
RS-15 25 Jun 19:50:14 19:57:26 18° 93° (E) 20:04:39 29.354- 29.394
CUTE 1.7 + AOD 2 25 Jun 19:58:55 20:03:06 56° 259° (W) 20:07:18 437.475
AO-73 25 Jun 20:02:31 20:06:43 38° 64° (ENE) 20:10:58 145.935
PCSat 25 Jun 20:05:29 20:10:46 49° 36° (NE) 20:16:03 145.827
CUBEBUG 2 25 Jun 20:07:34 20:12:13 84° 255° (WSW) 20:17:02 437.445
STARS 25 Jun 20:12:06 20:15:57 29° 300° (WNW) 20:19:47 437.465
CUTE-I 25 Jun 20:24:11 20:27:11 15° 276° (W) 20:30:12 437.470
CUBESAT XI-V 25 Jun 20:25:37 20:27:16 12° 313° (NW) 20:28:56 437.345
DELFI C3 25 Jun 20:28:06 20:30:40 17° 57° (ENE) 20:33:14 145.870
Oscar 11 25 Jun 20:29:55 20:34:07 50° 68° (ENE) 20:38:20 .
AAUSAT CUBESAT 2 25 Jun 20:33:22 20:37:29 73° 256° (WSW) 20:41:37 437.432
ZACube-1 25 Jun 20:37:00 20:41:34 76° 73° (ENE) 20:46:12 437.345
UWE-3 25 Jun 20:41:45 20:46:21 65° 258° (WSW) 20:51:03 435.000/436.395/437.385
YUBILEINY 25 Jun 20:46:03 20:51:39 19° 69° (ENE) 20:57:15 435.215
STRAND 1 25 Jun 20:52:55 20:58:05 65° 103° (ESE) 21:03:12 437.568
SO-50 25 Jun 20:57:18 21:01:23 32° 20° (NNE) 21:05:27 436.795
FO-29 25 Jun 21:07:05 21:11:14 15° 76° (ENE) 21:15:24 435.910
XW-2A 25 Jun 21:15:46 21:16:58 11° 273° (W) 21:18:11 145.665 - 145.685
SEEDS 25 Jun 21:19:21 21:22:07 17° 272° (W) 21:24:54 437.485
EO-88 25 Jun 21:27:41 21:31:05 36° 67° (ENE) 21:34:30 145.990 - 145.960
AO-85 25 Jun 21:29:18 21:32:47 29° 123° (ESE) 21:36:14 145.980
BEESAT 3 25 Jun 21:33:55 21:37:00 22° 119° (ESE) 21:40:07 437.485
AO-73 25 Jun 21:38:44 21:42:58 37° 264° (W) 21:47:15 145.935
HO-68 25 Jun 21:39:26 21:44:13 19° 277° (W) 21:49:02 435.675
CUBEBUG 2 25 Jun 21:46:58 21:49:37 15° 276° (W) 21:52:18 437.445
PCSat 25 Jun 21:49:01 21:54:16 49° 239° (WSW) 21:59:28 145.827
LO-87 25 Jun 21:52:23 21:54:19 14° 56° (NE) 21:56:15 145.935 - 145.965
RS-15 25 Jun 21:55:16 22:07:02 57° 119° (ESE) 22:18:53 29.354- 29.394
DELFI C3 25 Jun 22:01:04 22:04:59 75° 256° (WSW) 22:08:56 145.870
Oscar 11 25 Jun 22:06:52 22:10:30 25° 268° (W) 22:14:09 .
PRISM 25 Jun 22:10:41 22:12:53 14° 87° (E) 22:15:04 437.425
AAUSAT CUBESAT 2 25 Jun 22:12:46 22:13:44 11° 277° (W) 22:14:42 437.432
ZACube-1 25 Jun 22:15:11 22:18:24 19° 273° (W) 22:21:38 437.345
TIGRISAT 25 Jun 22:16:26 22:19:38 18° 87° (E) 22:22:47 435.000
UWE-3 25 Jun 22:22:16 22:23:45 11° 279° (W) 22:25:15 435.000/436.395/437.385
O/OREOS (USA 219) 25 Jun 22:29:29 22:33:50 47° 113° (ESE) 22:38:12 437.305
BEESAT 2 25 Jun 22:32:10 22:35:38 28° 122° (ESE) 22:39:09 435.950
STRAND 1 25 Jun 22:32:36 22:36:56 28° 304° (WNW) 22:41:15 437.568
SO-50 25 Jun 22:37:49 22:42:23 87° 43° (NE) 22:46:55 436.795
YUBILEINY 25 Jun 22:38:04 22:46:44 66° 94° (E) 22:55:29 435.215
ESTCUBE 1 25 Jun 22:48:15 22:52:19 35° 63° (ENE) 22:56:24 437.505/2401.250
FO-29 25 Jun 22:50:23 22:57:58 55° 98° (E) 23:05:39 435.910
VELOX 1 25 Jun 22:52:00 22:54:25 15° 51° (NE) 22:56:49 145.980
UNISAT 6 25 Jun 22:57:50 23:02:16 40° 97° (E) 23:06:37 437.425
EO-88 25 Jun 23:01:44 23:04:51 26° 266° (W) 23:08:00 145.990 - 145.960
NO-84 25 Jun 23:08:25 23:11:55 28° 142° (SE) 23:15:37 435.350 FM
AO-85 25 Jun 23:09:05 23:12:59 54° 324° (NW) 23:16:52 145.980
BEESAT 3 25 Jun 23:10:11 23:14:12 74° 320° (NW) 23:18:16 437.485
SPROUT 25 Jun 23:12:15 23:15:23 20° 56° (ENE) 23:18:31 437.525
LO-87 25 Jun 23:23:40 23:27:14 82° 255° (WSW) 23:30:52 145.935 - 145.965
M-CUBED/EXP-1 PRIME 25 Jun 23:27:08 23:30:43 74° 110° (ESE) 23:34:35 437.505
UKube-1 25 Jun 23:31:05 23:31:29 10° 45° (NE) 23:31:52 .
PCSat 25 Jun 23:35:49 23:36:25 10° 259° (W) 23:37:02 145.827
DELFI C3 25 Jun 23:39:55 23:40:30 10° 276° (W) 23:41:05 145.870
PRISM 25 Jun 23:44:38 23:48:45 86° 285° (WNW) 23:52:52 437.425
POLYITAN 1 25 Jun 23:48:10 23:49:29 11° 84° (E) 23:50:48 437.675
TIGRISAT 25 Jun 23:52:12 23:56:55 81° 288° (WNW) 00:01:33 435.000
QB50P2 25 Jun 23:58:04 00:00:33 15° 87° (E) 00:03:01 145.880/145.840
RS-15 26 Jun 00:07:04 00:19:26 73° 327° (NNW) 00:31:47 29.354- 29.394
BEESAT 2 26 Jun 00:09:12 00:13:11 59° 322° (NW) 00:17:14 435.950
O/OREOS (USA 219) 26 Jun 00:09:15 00:13:24 34° 314° (NW) 00:17:34 437.305
AIST 2D 26 Jun 00:15:26 00:18:39 32° 96° (E) 00:21:49 435.315
SO-50 26 Jun 00:18:58 00:22:20 21° 243° (WSW) 00:25:43 436.795
EO-79 26 Jun 00:21:57 00:25:20 22° 91° (E) 00:28:41 145.935-145.965
ESTCUBE 1 26 Jun 00:24:53 00:29:07 39° 263° (W) 00:33:21 437.505/2401.250
VELOX 1 26 Jun 00:25:47 00:30:09 72° 72° (ENE) 00:34:33 145.980
UNISAT 6 26 Jun 00:34:39 00:38:57 36° 297° (WNW) 00:43:12 437.425
FO-29 26 Jun 00:35:38 00:42:57 51° 299° (WNW) 00:50:27 435.910
DUCHIFAT 1 26 Jun 00:35:49 00:39:20 24° 92° (E) 00:42:49 145.980
YUBILEINY 26 Jun 00:35:54 00:44:08 42° 299° (WNW) 00:52:27 435.215
50 SAT 26 Jun 00:43:53 00:47:10 51° 70° (ENE) 00:50:29 437.505
NANOSAT C BR1 26 Jun 00:44:11 00:48:01 31° 95° (E) 00:51:50 145.865
NO-84 26 Jun 00:44:56 00:49:06 72° 163° (SSE) 00:53:29 435.350 FM
DX 1 26 Jun 00:45:25 00:49:33 45° 66° (ENE) 00:53:43 434.975-435.025
SPROUT 26 Jun 00:46:34 00:50:50 73° 255° (WSW) 00:55:11 437.525
BEESAT 3 26 Jun 00:48:56 00:52:22 26° 341° (NNW) 00:55:49 437.485
AO-85 26 Jun 00:50:57 00:54:07 23° 347° (NNW) 00:57:19 145.980
BEESAT 26 Jun 00:57:44 00:58:56 11° 43° (NE) 01:00:08 436.000
UKube-1 26 Jun 01:02:25 01:06:32 46° 66° (ENE) 01:10:41 .
M-CUBED/EXP-1 PRIME 26 Jun 01:02:28 01:04:52 17° 309° (NW) 01:07:22 437.505
PRISM 26 Jun 01:21:03 01:23:27 15° 307° (NW) 01:25:52 437.425
POLYITAN 1 26 Jun 01:21:46 01:26:05 72° 104° (ESE) 01:30:22 437.675
TIGRISAT 26 Jun 01:29:54 01:32:56 17° 308° (NW) 01:35:55 435.000
QB50P2 26 Jun 01:32:38 01:36:58 86° 287° (WNW) 01:41:15 145.880/145.840
BUGSAT 1 26 Jun 01:45:17 01:49:16 37° 97° (E) 01:53:14 437.445
BEESAT 2 26 Jun 01:48:19 01:51:40 24° 345° (NNW) 01:55:02 435.950
AIST 2D 26 Jun 01:48:46 01:51:48 27° 295° (WNW) 01:54:48 435.315
Oscar 19 26 Jun 01:49:21 01:53:11 21° 89° (E) 01:57:01 437.125/150
O/OREOS (USA 219) 26 Jun 01:52:09 01:54:12 13° 338° (NNW) 01:56:14 437.305
EO-79 26 Jun 01:57:13 02:01:26 57° 291° (WNW) 02:05:38 145.935-145.965
MOZHAYETS 4 26 Jun 02:02:18 02:05:34 19° 54° (NE) 02:08:49
VELOX 1 26 Jun 02:04:04 02:07:07 18° 271° (W) 02:10:10 145.980
DUCHIFAT 1 26 Jun 02:11:07 02:15:17 51° 292° (WNW) 02:19:23 145.980
50 SAT 26 Jun 02:18:04 02:20:16 16° 269° (W) 02:22:29 437.505
NANOSAT C BR1 26 Jun 02:19:49 02:23:50 40° 295° (WNW) 02:27:49 145.865
ITUPSAT 1 26 Jun 02:21:20 02:25:44 37° 62° (ENE) 02:30:10 437.325
FO-29 26 Jun 02:21:30 02:26:27 19° 321° (NW) 02:31:31 435.910
RS-15 26 Jun 02:21:52 02:34:00 54° 359° (N) 02:45:52 29.354- 29.394
DX 1 26 Jun 02:22:12 02:25:55 28° 266° (W) 02:29:41 434.975-435.025
NO-84 26 Jun 02:22:26 02:26:45 90° 270° (W) 02:31:10 435.350 FM
SPROUT 26 Jun 02:26:13 02:27:34 11° 276° (W) 02:28:56 437.525
BEESAT 3 26 Jun 02:27:58 02:31:05 21° 5° (N) 02:34:11 437.485
BEESAT 26 Jun 02:31:04 02:35:36 43° 64° (ENE) 02:40:09 436.000
AO-85 26 Jun 02:32:30 02:35:40 22° 12° (NNE) 02:38:55 145.980
UKube-1 26 Jun 02:39:05 02:42:46 27° 266° (W) 02:46:28 .
YUBILEINY 26 Jun 02:39:10 02:44:06 16° 328° (NNW) 02:49:04 435.215
Gurwin Techsat 1B 26 Jun 02:43:11 02:48:07 36° 96° (E) 02:53:00 435.225
CUBESAT XI-V 26 Jun 02:45:12 02:47:09 13° 48° (NE) 02:49:06 437.345
POLYITAN 1 26 Jun 02:58:17 03:01:27 20° 304° (WNW) 03:04:35 437.675
QB50P2 26 Jun 03:09:30 03:12:09 16° 307° (NW) 03:14:47 145.880/145.840
BUGSAT 1 26 Jun 03:20:45 03:24:36 34° 297° (WNW) 03:28:27 437.445
BEESAT 2 26 Jun 03:27:23 03:30:36 22° 9° (N) 03:33:49 435.950
Oscar 19 26 Jun 03:27:58 03:33:07 78° 289° (WNW) 03:38:14 437.125/150
AO-7 26 Jun 03:31:31 03:37:50 23° 86° (E) 03:44:06 .
KKS-1 26 Jun 03:34:39 03:37:58 21° 55° (NE) 03:41:19 437.445
EO-79 26 Jun 03:34:49 03:36:21 12° 311° (NW) 03:37:52 145.935-145.965
MOZHAYETS 4 26 Jun 03:37:31 03:42:11 87° 257° (WSW) 03:46:52
DUCHIFAT 1 26 Jun 03:49:04 03:50:01 11° 312° (NW) 03:50:59 145.980
